AFL612 URMM-UDYZ

Flight info

Callsign AFL612
Flight time 0h 50m
Altitude 31000
Route MOZAT M54 GUSLI L125 OGEVI T918 TIBLO
Aircraft A320/M-SDE3FGHIRWY/LB1

Departure

Time 2026-04-16 11:01
Airport Mineralnye Vody Airport (URMM)

Arrival

Time 2026-04-16 11:52
Airport Zvartnots International Airport (UDYZ)
Time Latitude Longitude Altitude Speed Heading
2026-04-16 10:37 44.21834 43.08850 1051 ft 0 kts 212°
2026-04-16 10:48 44.21835 43.08850 1051 ft 0 kts 212°
2026-04-16 10:52 44.21845 43.08859 1051 ft 3 kts 210°
2026-04-16 10:52 44.21863 43.08872 1052 ft 3 kts 204°
2026-04-16 10:52 44.21881 43.08882 1051 ft 3 kts 192°
2026-04-16 10:52 44.21900 43.08885 1052 ft 3 kts 164°
2026-04-16 10:53 44.21913 43.08877 1052 ft 1 kts 123°
2026-04-16 10:53 44.21913 43.08876 1051 ft 3 kts 122°
2026-04-16 10:55 44.21914 43.08876 1051 ft 0 kts 122°
2026-04-16 10:55 44.21913 43.08876 1051 ft 0 kts 122°
2026-04-16 10:55 44.21914 43.08876 1051 ft 0 kts 122°
2026-04-16 10:55 44.21896 43.08913 1051 ft 8 kts 122°
2026-04-16 10:56 44.21868 43.08977 1051 ft 7 kts 122°
2026-04-16 10:56 44.21839 43.09038 1051 ft 8 kts 126°
2026-04-16 10:56 44.21810 43.09091 1051 ft 6 kts 126°
2026-04-16 10:56 44.21787 43.09138 1051 ft 5 kts 123°
2026-04-16 10:57 44.21764 43.09190 1051 ft 11 kts 121°
2026-04-16 10:57 44.21698 43.09313 1051 ft 19 kts 133°
2026-04-16 10:57 44.21627 43.09451 1051 ft 17 kts 122°
2026-04-16 10:57 44.21568 43.09582 1051 ft 15 kts 122°
2026-04-16 10:58 44.21521 43.09689 1051 ft 9 kts 119°
2026-04-16 10:58 44.21512 43.09768 1051 ft 8 kts 81°
2026-04-16 10:58 44.21523 43.09836 1051 ft 7 kts 76°
2026-04-16 10:58 44.21540 43.09937 1051 ft 11 kts 78°
2026-04-16 10:59 44.21556 43.10038 1051 ft 10 kts 76°
2026-04-16 10:59 44.21572 43.10126 1051 ft 9 kts 76°
2026-04-16 10:59 44.21590 43.10197 1052 ft 7 kts 59°
2026-04-16 10:59 44.21626 43.10240 1051 ft 11 kts 32°
2026-04-16 11:00 44.21698 43.10297 1050 ft 11 kts 33°
2026-04-16 11:00 44.21756 43.10318 1052 ft 7 kts 343°
2026-04-16 11:00 44.21782 43.10277 1054 ft 6 kts 300°
2026-04-16 11:00 44.21790 43.10258 1053 ft 8 kts 300°
2026-04-16 11:01 44.21903 43.10001 1054 ft 65 kts 303°
2026-04-16 11:01 44.22255 43.09226 1053 ft 124 kts 303°
2026-04-16 11:01 44.22789 43.08007 1105 ft 165 kts 300°
2026-04-16 11:01 44.23408 43.06649 1733 ft 167 kts 302°
2026-04-16 11:02 44.24043 43.05255 2494 ft 175 kts 300°
2026-04-16 11:02 44.24749 43.03709 2918 ft 201 kts 300°
2026-04-16 11:02 44.25521 43.01985 3489 ft 221 kts 301°
2026-04-16 11:02 44.26338 43.00070 4165 ft 236 kts 293°
2026-04-16 11:03 44.26520 42.97820 5061 ft 246 kts 260°
2026-04-16 11:03 44.25692 42.95709 6004 ft 259 kts 228°
2026-04-16 11:03 44.22130 42.94745 7868 ft 292 kts 161°
2026-04-16 11:04 44.20459 42.96405 8790 ft 301 kts 135°
2026-04-16 11:04 44.19195 42.98763 9758 ft 306 kts 123°
2026-04-16 11:04 44.18096 43.01347 10416 ft 319 kts 126°
2026-04-16 11:04 44.16463 43.03536 10706 ft 337 kts 146°
2026-04-16 11:05 44.14575 43.05510 11249 ft 348 kts 146°
2026-04-16 11:05 44.12456 43.07130 11952 ft 349 kts 164°
2026-04-16 11:05 44.10085 43.07805 12704 ft 350 kts 175°
2026-04-16 11:05 44.07659 43.08253 13469 ft 354 kts 175°
2026-04-16 11:06 44.05195 43.08695 14172 ft 360 kts 175°
2026-04-16 11:06 44.02697 43.09141 14811 ft 364 kts 175°
2026-04-16 11:06 44.00171 43.09586 15463 ft 369 kts 175°
2026-04-16 11:06 43.97606 43.10032 16136 ft 373 kts 175°
2026-04-16 11:07 43.95054 43.10477 16792 ft 377 kts 175°
2026-04-16 11:07 43.92440 43.10933 17437 ft 381 kts 175°
2026-04-16 11:07 43.89794 43.11394 18084 ft 385 kts 174°
2026-04-16 11:07 43.87121 43.11862 18691 ft 389 kts 174°
2026-04-16 11:08 43.84418 43.12337 19258 ft 393 kts 174°
2026-04-16 11:08 43.81698 43.12815 19823 ft 396 kts 174°
2026-04-16 11:08 43.78956 43.13294 20411 ft 398 kts 174°
2026-04-16 11:08 43.76236 43.13770 20974 ft 401 kts 174°
2026-04-16 11:09 43.73458 43.14257 21537 ft 403 kts 174°
2026-04-16 11:09 43.70664 43.14751 22097 ft 406 kts 174°
2026-04-16 11:09 43.67852 43.15250 22656 ft 409 kts 174°
2026-04-16 11:09 43.65023 43.15751 23200 ft 411 kts 174°
2026-04-16 11:10 43.62175 43.16250 23719 ft 414 kts 174°
2026-04-16 11:10 43.59308 43.16746 24159 ft 417 kts 174°
2026-04-16 11:10 43.56428 43.17247 24581 ft 419 kts 174°
2026-04-16 11:10 43.53558 43.17749 24968 ft 422 kts 174°
2026-04-16 11:11 43.50633 43.18258 25364 ft 425 kts 174°
2026-04-16 11:11 43.47689 43.18770 25751 ft 428 kts 174°
2026-04-16 11:11 43.44732 43.19288 26136 ft 431 kts 174°
2026-04-16 11:11 43.41733 43.19812 26527 ft 434 kts 174°
2026-04-16 11:12 43.38734 43.20336 26905 ft 437 kts 174°
2026-04-16 11:12 43.35703 43.20865 27273 ft 441 kts 174°
2026-04-16 11:12 43.32645 43.21397 27641 ft 444 kts 175°
2026-04-16 11:12 43.29568 43.21937 27999 ft 448 kts 175°
2026-04-16 11:13 43.26503 43.22475 28346 ft 451 kts 175°
2026-04-16 11:13 43.23377 43.23021 28692 ft 455 kts 175°
2026-04-16 11:13 43.20221 43.23571 29000 ft 459 kts 175°
2026-04-16 11:13 43.17045 43.24122 29305 ft 462 kts 175°
2026-04-16 11:14 43.13842 43.24677 29637 ft 465 kts 175°
2026-04-16 11:14 43.10620 43.25236 29968 ft 469 kts 175°
2026-04-16 11:14 43.07372 43.25802 30239 ft 472 kts 176°
2026-04-16 11:14 43.04151 43.26366 30485 ft 475 kts 176°
2026-04-16 11:15 43.00865 43.26944 30738 ft 477 kts 176°
2026-04-16 11:15 42.97563 43.27521 31005 ft 479 kts 176°
2026-04-16 11:15 42.94249 43.28095 31169 ft 481 kts 175°
2026-04-16 11:16 42.87932 43.30410 31202 ft 465 kts 162°
2026-04-16 11:16 42.81866 43.33386 31198 ft 463 kts 163°
2026-04-16 11:17 42.75841 43.36331 31194 ft 463 kts 163°
2026-04-16 11:17 42.69779 43.39282 31188 ft 463 kts 163°
2026-04-16 11:18 42.63717 43.42234 31174 ft 464 kts 163°
2026-04-16 11:18 42.57639 43.45179 31155 ft 464 kts 164°
2026-04-16 11:19 42.51528 43.47824 31153 ft 464 kts 167°
2026-04-16 11:19 42.45331 43.50252 31152 ft 464 kts 167°
2026-04-16 11:20 42.39124 43.52710 31150 ft 465 kts 166°
2026-04-16 11:20 42.32932 43.55242 31148 ft 465 kts 166°
2026-04-16 11:21 42.26770 43.57782 31143 ft 466 kts 166°
2026-04-16 11:21 42.20552 43.60336 31150 ft 467 kts 166°
2026-04-16 11:22 42.14320 43.62866 31144 ft 468 kts 167°
2026-04-16 11:22 42.08032 43.65128 31146 ft 465 kts 175°
2026-04-16 11:23 42.01669 43.66076 31146 ft 464 kts 178°
2026-04-16 11:23 41.95246 43.67005 31149 ft 465 kts 178°
2026-04-16 11:24 41.88819 43.67945 31146 ft 465 kts 178°
2026-04-16 11:24 41.82422 43.68873 31153 ft 466 kts 178°
2026-04-16 11:25 41.75969 43.69799 31162 ft 467 kts 178°
2026-04-16 11:25 41.69513 43.70720 31171 ft 467 kts 178°
2026-04-16 11:26 41.63049 43.71646 31180 ft 467 kts 178°
2026-04-16 11:26 41.56638 43.72567 31182 ft 466 kts 179°
2026-04-16 11:27 41.50188 43.73486 31187 ft 466 kts 179°
2026-04-16 11:27 41.43743 43.74400 31183 ft 465 kts 179°
2026-04-16 11:28 41.37310 43.75316 31177 ft 465 kts 179°
2026-04-16 11:28 41.30918 43.76225 31176 ft 465 kts 179°
2026-04-16 11:29 41.24482 43.77138 31177 ft 464 kts 179°
2026-04-16 11:29 41.18061 43.78045 31170 ft 464 kts 179°
2026-04-16 11:30 41.11639 43.78949 31164 ft 464 kts 178°
2026-04-16 11:30 41.05214 43.79911 31164 ft 464 kts 178°
2026-04-16 11:31 40.98846 43.80880 31165 ft 464 kts 178°
2026-04-16 11:31 40.92426 43.81842 31170 ft 464 kts 178°
2026-04-16 11:32 40.86018 43.82790 31173 ft 462 kts 178°
2026-04-16 11:32 40.79691 43.83730 31216 ft 459 kts 178°
2026-04-16 11:33 40.73359 43.84666 31166 ft 457 kts 178°
2026-04-16 11:33 40.70210 43.85114 30811 ft 453 kts 178°
2026-04-16 11:33 40.67082 43.85525 30219 ft 451 kts 179°
2026-04-16 11:33 40.63964 43.85916 29601 ft 448 kts 179°
2026-04-16 11:34 40.60880 43.86296 29053 ft 443 kts 179°
2026-04-16 11:34 40.57864 43.86667 28504 ft 439 kts 179°
2026-04-16 11:34 40.54833 43.87043 27955 ft 436 kts 179°
2026-04-16 11:34 40.51830 43.87421 27440 ft 431 kts 178°
2026-04-16 11:35 40.48858 43.87800 26941 ft 427 kts 178°
2026-04-16 11:35 40.45920 43.88176 26420 ft 423 kts 178°
2026-04-16 11:35 40.43017 43.88765 25987 ft 422 kts 167°
2026-04-16 11:35 40.40321 43.90142 25810 ft 409 kts 154°
2026-04-16 11:36 40.37991 43.92175 25261 ft 400 kts 140°
2026-04-16 11:36 40.36129 43.94770 24615 ft 394 kts 125°
2026-04-16 11:36 40.35132 43.96799 24166 ft 389 kts 118°
2026-04-16 11:36 40.33503 44.00528 23249 ft 385 kts 119°
2026-04-16 11:37 40.32171 44.03540 22494 ft 380 kts 119°
2026-04-16 11:37 40.30837 44.06528 21493 ft 383 kts 119°
2026-04-16 11:37 40.29471 44.09578 20162 ft 395 kts 119°
2026-04-16 11:37 40.28065 44.12718 19160 ft 398 kts 120°
2026-04-16 11:38 40.26703 44.15759 18891 ft 378 kts 120°
2026-04-16 11:38 40.25421 44.18621 18656 ft 363 kts 120°
2026-04-16 11:38 40.24142 44.21478 17656 ft 368 kts 120°
2026-04-16 11:38 40.22828 44.24416 16273 ft 380 kts 120°
2026-04-16 11:39 40.21475 44.27440 14844 ft 390 kts 120°
2026-04-16 11:39 40.20088 44.30542 13401 ft 398 kts 120°
2026-04-16 11:39 40.18711 44.33614 12800 ft 379 kts 120°
2026-04-16 11:39 40.17421 44.36485 12553 ft 354 kts 120°
2026-04-16 11:40 40.16212 44.39173 12294 ft 332 kts 120°
2026-04-16 11:40 40.15087 44.41666 12035 ft 315 kts 120°
2026-04-16 11:40 40.13986 44.44101 11778 ft 308 kts 120°
2026-04-16 11:40 40.12905 44.46496 11523 ft 305 kts 120°
2026-04-16 11:41 40.11832 44.48875 11296 ft 305 kts 120°
2026-04-16 11:41 40.10760 44.51255 11031 ft 302 kts 120°
2026-04-16 11:41 40.09698 44.53612 10779 ft 300 kts 120°
2026-04-16 11:41 40.08645 44.55945 10533 ft 298 kts 120°
2026-04-16 11:42 40.07593 44.58265 10285 ft 296 kts 121°
2026-04-16 11:42 40.06558 44.60539 10039 ft 295 kts 121°
2026-04-16 11:42 40.05515 44.62833 9865 ft 294 kts 120°
2026-04-16 11:42 40.04482 44.65109 9729 ft 287 kts 120°
2026-04-16 11:43 40.03680 44.67436 9592 ft 277 kts 106°
2026-04-16 11:43 40.03342 44.69856 9463 ft 267 kts 92°
2026-04-16 11:43 40.03341 44.72235 9338 ft 259 kts 89°
2026-04-16 11:43 40.03354 44.74545 9196 ft 249 kts 88°
2026-04-16 11:44 40.03700 44.76631 9059 ft 233 kts 59°
2026-04-16 11:44 40.04783 44.78067 8933 ft 220 kts 25°
2026-04-16 11:44 40.06231 44.78524 8817 ft 214 kts 359°
2026-04-16 11:44 40.07721 44.78508 8683 ft 214 kts 359°
2026-04-16 11:45 40.09209 44.78449 8582 ft 214 kts 351°
2026-04-16 11:45 40.10650 44.78007 8457 ft 213 kts 345°
2026-04-16 11:45 40.12087 44.77517 8336 ft 213 kts 345°
2026-04-16 11:45 40.13455 44.76890 8341 ft 212 kts 327°
2026-04-16 11:46 40.14474 44.75536 8335 ft 211 kts 298°
2026-04-16 11:46 40.14867 44.73707 8331 ft 212 kts 272°
2026-04-16 11:46 40.14868 44.71748 8014 ft 218 kts 270°
2026-04-16 11:46 40.14858 44.69748 7681 ft 222 kts 270°
2026-04-16 11:47 40.14848 44.67713 7330 ft 226 kts 270°
2026-04-16 11:47 40.14839 44.65637 6960 ft 228 kts 269°
2026-04-16 11:47 40.14831 44.63596 6601 ft 221 kts 269°
2026-04-16 11:47 40.14824 44.61668 6267 ft 210 kts 269°
2026-04-16 11:48 40.14818 44.59813 5969 ft 196 kts 269°
2026-04-16 11:48 40.14812 44.58111 5679 ft 178 kts 269°
2026-04-16 11:48 40.14804 44.56567 5408 ft 162 kts 269°
2026-04-16 11:48 40.14797 44.55136 5136 ft 153 kts 269°
2026-04-16 11:49 40.14791 44.53773 4908 ft 148 kts 269°
2026-04-16 11:49 40.14785 44.52434 4670 ft 146 kts 270°
2026-04-16 11:49 40.14778 44.51111 4455 ft 146 kts 270°
2026-04-16 11:49 40.14774 44.49807 4236 ft 145 kts 270°
2026-04-16 11:50 40.14770 44.48491 4016 ft 145 kts 270°
2026-04-16 11:50 40.14763 44.47175 3800 ft 144 kts 270°
2026-04-16 11:50 40.14756 44.45867 3577 ft 144 kts 271°
2026-04-16 11:50 40.14750 44.44560 3362 ft 143 kts 271°
2026-04-16 11:51 40.14742 44.43258 3129 ft 143 kts 271°
2026-04-16 11:51 40.14736 44.41962 2904 ft 142 kts 272°
2026-04-16 11:51 40.14738 44.40721 2840 ft 124 kts 272°
2026-04-16 11:51 40.14731 44.39832 2840 ft 75 kts 270°
2026-04-16 11:52 40.14728 44.39369 2838 ft 38 kts 270°
2026-04-16 11:52 40.14739 44.39095 2839 ft 24 kts 287°
2026-04-16 11:52 40.14716 44.39020 2839 ft 1 kts 161°
2026-04-16 11:52 40.14717 44.39065 2839 ft 19 kts 87°
2026-04-16 11:53 40.14727 44.39340 2838 ft 33 kts 89°
2026-04-16 11:53 40.14727 44.39642 2839 ft 33 kts 90°
2026-04-16 11:53 40.14731 44.39893 2841 ft 24 kts 88°
2026-04-16 11:53 40.14777 44.40029 2839 ft 14 kts 24°
2026-04-16 11:54 40.14856 44.40036 2840 ft 9 kts 359°
2026-04-16 11:54 40.14917 44.40035 2840 ft 9 kts
2026-04-16 11:54 40.14959 44.40046 2841 ft 3 kts 20°
2026-04-16 11:54 40.14987 44.40060 2841 ft 8 kts 21°
2026-04-16 11:55 40.15037 44.40073 2841 ft 6 kts
2026-04-16 11:55 40.15061 44.40074 2841 ft 0 kts
2026-04-16 11:55 40.15070 44.40074 2841 ft 2 kts
2026-04-16 11:55 40.15084 44.40074 2841 ft 1 kts
2026-04-16 11:56 40.15087 44.40074 2841 ft 0 kts
2026-04-16 11:56 40.15092 44.40074 2841 ft 1 kts
2026-04-16 11:56 40.15094 44.40074 2841 ft 0 kts